{"data":{"norad_id":59085,"intl_designator":"2024-041M","name":"STARLINK-31290","alt_names":[],"object_type":"PAYLOAD","status":"ACTIVE","operator":null,"country":"US","launch_date":"2024-02-29","launch_site_code":"AFETR","launch_vehicle":null,"mission":null,"orbit_class":"UNKNOWN","rcs_meters":null,"size_class":null,"mass_kg":null,"dimensions":null,"purposes":["comms"],"wikipedia_slug":null,"has_3d_model":false,"image_url":null,"decayed_at":null,"tle_current":{"epoch":"2026-05-24T21:53:19.093920Z","epoch_age_seconds":79336,"freshness":"FRESH","line1":"1 59085U 24041M   26144.91202655  .00001414  00000+0  60889-4 0  9999","line2":"2 59085  43.0009 225.9705 0001252 273.2267  86.8441 15.27579725126239","mean_motion":15.27579725,"eccentricity":0.0001252,"inclination_deg":43.0009,"raan_deg":225.9705,"arg_perigee_deg":273.2267,"mean_anomaly_deg":86.8441,"bstar":6.0889e-5,"rev_number":12623,"period_min":94.266765683866,"perigee_km":482.19089888639,"apogee_km":483.90894009103,"semimajor_km":6861.1869194887,"source":"CELESTRAK","updated_at":"2026-05-25T13:38:18.829968Z"}}}